QPF
0.06 0.06 0.04 0.01 0.01 0.01 0.01 0.01 0.02 0.03 0.03 0.03 0.03 0.02 0.02 0.04 0.06 0.09 0.12 0.12 0.10 0.08 0.08 0.09 0.07 0.05 0.04 0.04 0.04 0.05 0.06 0.09 0.11 0.12 0.10 0.07 0.08 0.08 0.07 0.07 0.07 0.07 0.07
0.01 0.02 0.03 0.01 0.02 0.02 0.03 0.03 0.05 0.05 0.05 0.05 0.05 0.04 0.03 0.03 0.05 0.07 0.09 0.09 0.09 0.11 0.09 0.06 0.05 0.04 0.04 0.03 0.03 0.05 0.05 0.06 0.09 0.11 0.09 0.07 0.08 0.10 0.09 0.09 0.11 0.10 0.07
0.01 0.01 0.02 0.01 0.01 0.02 0.03 0.03 0.04 0.05 0.06 0.06 0.06 0.05 0.03 0.03 0.04 0.07 0.08 0.09 0.10 0.10 0.10 0.09 0.07 0.06 0.04 0.03 0.03 0.04 0.06 0.06 0.07 0.09 0.09 0.08 0.09 0.12 0.13 0.12 0.11 0.07 0.04
0.02 0.01 0.01 0.01 0.00 0.01 0.02 0.03 0.02 0.03 0.04 0.04 0.04 0.04 0.04 0.04 0.04 0.05 0.06 0.12 0.14 0.12 0.08 0.07 0.07 0.07 0.06 0.04 0.03 0.03 0.04 0.05 0.05 0.06 0.07 0.06 0.06 0.08 0.10 0.11 0.10 0.07 0.05
0.01 0.01 0.01 0.01 0.00 0.01 0.01 0.01 0.01 0.02 0.03 0.03 0.03 0.04 0.03 0.03 0.03 0.04 0.05 0.07 0.07 0.08 0.06 0.05 0.06 0.06 0.06 0.04 0.04 0.05 0.06 0.06 0.05 0.05 0.07 0.08 0.07 0.07 0.07 0.10 0.11 0.11 0.10
0.02 0.02 0.01 0.01 0.01 0.01 0.00 0.00 0.01 0.01 0.02 0.02 0.03 0.02 0.02 0.03 0.04 0.04 0.04 0.05 0.06 0.08 0.07 0.05 0.04 0.04 0.04 0.05 0.06 0.07 0.07 0.07 0.05 0.04 0.05 0.05 0.07 0.07 0.08 0.10 0.12 0.13 0.13
0.03 0.03 0.02 0.02 0.02 0.02 0.01 0.01 0.02 0.02 0.02 0.03 0.04 0.04 0.04 0.04 0.04 0.04 0.04 0.04 0.05 0.08 0.06 0.04 0.03 0.04 0.05 0.10 0.11 0.07 0.05 0.06 0.05 0.03 0.02 0.03 0.04 0.04 0.04 0.05 0.05 0.07 0.09
0.01 0.02 0.03 0.04 0.04 0.04 0.03 0.02 0.02 0.03 0.04 0.06 0.06 0.05 0.06 0.06 0.06 0.04 0.03 0.03 0.03 0.05 0.05 0.04 0.04 0.05 0.07 0.06 0.05 0.04 0.03 0.03 0.04 0.03 0.02 0.02 0.03 0.05 0.05 0.03 0.03 0.04 0.05
0.04 0.03 0.06 0.09 0.09 0.08 0.05 0.03 0.03 0.04 0.07 0.10 0.08 0.07 0.08 0.09 0.09 0.06 0.04 0.04 0.03 0.04 0.05 0.05 0.04 0.04 0.05 0.05 0.04 0.03 0.02 0.01 0.02 0.02 0.03 0.02 0.02 0.03 0.04 0.05 0.04 0.04 0.04
0.05 0.05 0.05 0.06 0.09 0.11 0.09 0.06 0.06 0.09 0.10 0.07 0.07 0.09 0.11 0.13 0.11 0.08 0.05 0.03 0.03 0.04 0.04 0.04 0.04 0.04 0.04 0.04 0.03 0.02 0.03 0.02 0.01 0.01 0.02 0.02 0.02 0.02 0.04 0.05 0.06 0.05 0.04
0.07 0.06 0.05 0.04 0.04 0.06 0.10 0.10 0.10 0.09 0.07 0.06 0.06 0.09 0.12 0.13 0.10 0.07 0.05 0.04 0.04 0.04 0.03 0.04 0.04 0.04 0.03 0.03 0.02 0.02 0.03 0.03 0.01 0.01 0.01 0.02 0.03 0.02 0.03 0.05 0.07 0.06 0.05
0.08 0.07 0.07 0.06 0.04 0.04 0.05 0.07 0.09 0.08 0.06 0.04 0.04 0.05 0.05 0.06 0.06 0.05 0.04 0.03 0.03 0.03 0.03 0.02 0.02 0.03 0.03 0.04 0.03 0.03 0.04 0.03 0.02 0.03 0.03 0.02 0.03 0.03 0.04 0.05 0.05 0.06 0.05
0.09 0.08 0.08 0.06 0.05 0.05 0.05 0.05 0.05 0.04 0.04 0.05 0.05 0.04 0.03 0.03 0.03 0.03 0.02 0.02 0.02 0.02 0.03 0.02 0.02 0.02 0.02 0.02 0.02 0.03 0.03 0.04 0.04 0.04 0.04 0.03 0.04 0.04 0.05 0.06 0.06 0.06 0.07
0.05 0.04 0.05 0.05 0.04 0.04 0.04 0.05 0.05 0.05 0.04 0.04 0.05 0.03 0.02 0.02 0.01 0.01 0.01 0.02 0.02 0.02 0.02 0.02 0.02 0.02 0.03 0.03 0.02 0.03 0.03 0.02 0.02 0.03 0.03 0.03 0.04 0.04 0.06 0.07 0.07 0.09 0.09
0.03 0.02 0.04 0.04 0.04 0.04 0.03 0.04 0.04 0.04 0.04 0.03 0.03 0.03 0.02 0.02 0.01 0.01 0.02 0.02 0.02 0.01 0.02 0.03 0.02 0.02 0.03 0.03 0.03 0.03 0.03 0.02 0.02 0.04 0.03 0.04 0.05 0.06 0.07 0.06 0.06 0.08 0.09
0.02 0.02 0.03 0.04 0.04 0.04 0.03 0.02 0.03 0.03 0.02 0.02 0.01 0.02 0.03 0.03 0.02 0.01 0.01 0.02 0.03 0.02 0.01 0.02 0.03 0.02 0.03 0.05 0.04 0.03 0.03 0.03 0.02 0.02 0.02 0.03 0.03 0.04 0.05 0.05 0.06 0.08 0.10
0.04 0.03 0.03 0.03 0.03 0.02 0.01 0.02 0.02 0.02 0.02 0.01 0.01 0.01 0.01 0.01 0.02 0.02 0.02 0.02 0.02 0.02 0.03 0.03 0.03 0.02 0.02 0.03 0.03 0.04 0.04 0.03 0.03 0.03 0.03 0.03 0.03 0.04 0.05 0.05 0.07 0.08 0.07
0.03 0.02 0.02 0.04 0.04 0.03 0.02 0.02 0.02 0.02 0.02 0.01 0.01 0.01 0.01 0.01 0.01 0.01 0.01 0.02 0.02 0.02 0.02 0.02 0.02 0.02 0.02 0.03 0.03 0.03 0.03 0.02 0.02 0.02 0.02 0.03 0.04 0.05 0.06 0.07 0.06 0.05 0.04
0.01 0.01 0.01 0.02 0.05 0.05 0.05 0.03 0.03 0.03 0.03 0.03 0.02 0.02 0.02 0.01 0.01 0.01 0.01 0.01 0.02 0.02 0.02 0.01 0.01 0.02 0.02 0.03 0.03 0.03 0.03 0.03 0.02 0.02 0.01 0.02 0.03 0.04 0.06 0.07 0.06 0.04 0.03
0.01 0.01 0.02 0.01 0.02 0.02 0.03 0.03 0.04 0.04 0.04 0.03 0.03 0.02 0.02 0.01 0.01 0.01 0.01 0.01 0.01 0.01 0.02 0.02 0.02 0.02 0.03 0.06 0.06 0.05 0.04 0.03 0.02 0.02 0.01 0.02 0.02 0.03 0.04 0.05 0.04 0.04 0.04
0.01 0.01 0.01 0.01 0.01 0.01 0.02 0.02 0.02 0.03 0.03 0.02 0.02 0.02 0.02 0.01 0.01 0.01 0.01 0.02 0.02 0.03 0.03 0.04 0.04 0.06 0.07 0.08 0.07 0.07 0.06 0.05 0.05 0.04 0.02 0.03 0.03 0.03 0.03 0.03 0.03 0.03 0.05
0.01 0.00 0.00 0.00 0.01 0.01 0.01 0.02 0.01 0.01 0.01 0.02 0.02 0.02 0.02 0.01 0.01 0.01 0.01 0.02 0.03 0.03 0.05 0.06 0.06 0.07 0.08 0.07 0.06 0.08 0.07 0.05 0.04 0.04 0.04 0.04 0.04 0.03 0.03 0.03 0.03 0.05 0.08
0.01 0.00 0.00 0.00 0.01 0.01 0.01 0.01 0.02 0.02 0.03 0.03 0.04 0.03 0.02 0.02 0.02 0.03 0.03 0.02 0.02 0.04 0.07 0.08 0.09 0.09 0.08 0.06 0.05 0.05 0.04 0.04 0.03 0.03 0.04 0.04 0.04 0.04 0.03 0.03 0.04 0.06 0.07
0.01 0.01 0.00 0.00 0.00 0.00 0.01 0.01 0.01 0.01 0.02 0.03 0.04 0.04 0.04 0.03 0.03 0.04 0.04 0.04 0.04 0.07 0.07 0.06 0.05 0.04 0.03 0.04 0.04 0.04 0.03 0.03 0.03 0.03 0.03 0.03 0.04 0.03 0.03 0.03 0.04 0.04 0.05
0.01 0.01 0.01 0.01 0.01 0.01 0.01 0.01 0.01 0.01 0.01 0.02 0.03 0.04 0.05 0.04 0.04 0.05 0.06 0.06 0.06 0.05 0.04 0.03 0.02 0.02 0.02 0.02 0.03 0.03 0.03 0.04 0.04 0.04 0.04 0.04 0.04 0.04 0.03 0.03 0.04 0.06 0.06
0.01 0.01 0.01 0.02 0.03 0.02 0.02 0.02 0.01 0.01 0.01 0.02 0.02 0.02 0.03 0.04 0.04 0.04 0.04 0.05 0.05 0.04 0.04 0.03 0.03 0.02 0.02 0.02 0.02 0.03 0.02 0.03 0.04 0.05 0.04 0.04 0.05 0.05 0.05 0.05 0.06 0.07 0.07
MSLP
1008.04 1008.25 1008.45 1008.63 1008.80 1008.98 1009.21 1009.51 1009.90 1010.39 1010.93 1011.50 1012.04 1012.48 1012.80 1012.97 1013.01 1012.94 1012.81 1012.70 1012.63 1012.65 1012.78 1013.00 1013.29 1013.61 1013.92 1014.20 1014.43 1014.61 1014.73 1014.81 1014.84 1014.82 1014.74 1014.58 1014.32 1013.96 1013.50 1012.99 1012.45 1011.95 1011.54
1007.26 1007.55 1007.82 1008.04 1008.22 1008.39 1008.59 1008.89 1009.31 1009.85 1010.49 1011.17 1011.82 1012.36 1012.74 1012.93 1012.94 1012.80 1012.59 1012.38 1012.23 1012.18 1012.27 1012.47 1012.76 1013.08 1013.39 1013.66 1013.88 1014.04 1014.15 1014.24 1014.30 1014.33 1014.33 1014.25 1014.08 1013.79 1013.39 1012.89 1012.34 1011.80 1011.32
1006.35 1006.73 1007.07 1007.35 1007.55 1007.73 1007.93 1008.23 1008.67 1009.27 1009.98 1010.76 1011.51 1012.15 1012.60 1012.82 1012.82 1012.64 1012.37 1012.08 1011.85 1011.74 1011.77 1011.94 1012.19 1012.47 1012.75 1012.98 1013.16 1013.28 1013.37 1013.46 1013.55 1013.64 1013.72 1013.75 1013.69 1013.52 1013.22 1012.79 1012.28 1011.73 1011.21
1005.34 1005.79 1006.21 1006.55 1006.80 1007.00 1007.22 1007.52 1007.98 1008.61 1009.38 1010.24 1011.07 1011.79 1012.31 1012.58 1012.59 1012.41 1012.10 1011.76 1011.48 1011.32 1011.29 1011.40 1011.59 1011.82 1012.04 1012.21 1012.33 1012.40 1012.45 1012.51 1012.62 1012.76 1012.92 1013.06 1013.13 1013.10 1012.92 1012.59 1012.15 1011.64 1011.12
1004.29 1004.79 1005.28 1005.69 1006.00 1006.23 1006.46 1006.76 1007.23 1007.87 1008.67 1009.57 1010.47 1011.25 1011.84 1012.16 1012.22 1012.06 1011.76 1011.41 1011.10 1010.90 1010.83 1010.88 1011.02 1011.19 1011.33 1011.43 1011.46 1011.46 1011.46 1011.49 1011.58 1011.75 1011.97 1012.21 1012.39 1012.49 1012.43 1012.23 1011.88 1011.43 1010.93
1003.27 1003.82 1004.37 1004.85 1005.20 1005.46 1005.70 1006.00 1006.45 1007.08 1007.88 1008.79 1009.72 1010.55 1011.20 1011.59 1011.71 1011.61 1011.35 1011.02 1010.73 1010.51 1010.41 1010.43 1010.51 1010.61 1010.68 1010.69 1010.64 1010.56 1010.49 1010.46 1010.52 1010.69 1010.93 1011.21 1011.48 1011.68 1011.74 1011.64 1011.39 1011.02 1010.58
1002.38 1002.96 1003.56 1004.09 1004.49 1004.77 1005.02 1005.30 1005.72 1006.31 1007.08 1007.97 1008.90 1009.75 1010.45 1010.90 1011.11 1011.08 1010.90 1010.63 1010.38 1010.18 1010.08 1010.07 1010.10 1010.14 1010.14 1010.07 1009.94 1009.77 1009.61 1009.51 1009.51 1009.62 1009.84 1010.13 1010.44 1010.69 1010.83 1010.82 1010.67 1010.39 1010.01
1001.69 1002.29 1002.93 1003.50 1003.93 1004.24 1004.48 1004.74 1005.11 1005.65 1006.36 1007.21 1008.11 1008.98 1009.70 1010.22 1010.50 1010.57 1010.48 1010.30 1010.10 1009.95 1009.86 1009.83 1009.84 1009.82 1009.75 1009.61 1009.39 1009.13 1008.87 1008.67 1008.57 1008.61 1008.76 1009.01 1009.29 1009.55 1009.74 1009.80 1009.72 1009.53 1009.24
1001.25 1001.86 1002.53 1003.13 1003.59 1003.92 1004.15 1004.39 1004.72 1005.19 1005.84 1006.63 1007.49 1008.34 1009.08 1009.64 1010.00 1010.16 1010.17 1010.08 1009.95 1009.85 1009.78 1009.74 1009.71 1009.65 1009.51 1009.29 1008.98 1008.62 1008.26 1007.95 1007.74 1007.66 1007.71 1007.87 1008.09 1008.33 1008.52 1008.62 1008.61 1008.50 1008.32
1001.06 1001.69 1002.38 1003.00 1003.48 1003.82 1004.06 1004.28 1004.57 1005.00 1005.58 1006.31 1007.12 1007.94 1008.69 1009.29 1009.71 1009.95 1010.04 1010.03 1009.97 1009.90 1009.84 1009.79 1009.72 1009.60 1009.39 1009.08 1008.68 1008.22 1007.75 1007.32 1006.98 1006.77 1006.70 1006.75 1006.88 1007.06 1007.23 1007.35 1007.41 1007.39 1007.30
1001.11 1001.75 1002.44 1003.08 1003.58 1003.93 1004.18 1004.41 1004.69 1005.08 1005.62 1006.30 1007.07 1007.86 1008.60 1009.21 1009.68 1009.97 1010.13 1010.17 1010.16 1010.11 1010.04 1009.96 1009.83 1009.63 1009.33 1008.93 1008.43 1007.87 1007.28 1006.73 1006.27 1005.92 1005.72 1005.65 1005.69 1005.80 1005.94 1006.07 1006.18 1006.24 1006.27
1001.30 1001.95 1002.64 1003.28 1003.79 1004.18 1004.46 1004.71 1005.00 1005.40 1005.92 1006.57 1007.31 1008.07 1008.79 1009.41 1009.89 1010.22 1010.41 1010.49 1010.49 1010.43 1010.33 1010.19 1009.98 1009.69 1009.29 1008.79 1008.18 1007.51 1006.81 1006.14 1005.56 1005.09 1004.77 1004.59 1004.53 1004.57 1004.68 1004.83 1004.98 1005.12 1005.26
1001.57 1002.21 1002.89 1003.52 1004.05 1004.46 1004.80 1005.10 1005.44 1005.86 1006.40 1007.04 1007.76 1008.49 1009.19 1009.80 1010.28 1010.62 1010.82 1010.90 1010.90 1010.81 1010.66 1010.44 1010.14 1009.74 1009.23 1008.62 1007.90 1007.12 1006.31 1005.54 1004.85 1004.27 1003.84 1003.56 1003.43 1003.41 1003.49 1003.64 1003.83 1004.05 1004.28
1001.82 1002.44 1003.09 1003.71 1004.26 1004.71 1005.11 1005.49 1005.89 1006.37 1006.94 1007.59 1008.30 1009.01 1009.69 1010.27 1010.74 1011.07 1011.27 1011.34 1011.31 1011.19 1010.98 1010.68 1010.28 1009.78 1009.16 1008.42 1007.60 1006.71 1005.81 1004.95 1004.16 1003.49 1002.98 1002.61 1002.41 1002.34 1002.40 1002.55 1002.77 1003.04 1003.34
1002.01 1002.59 1003.21 1003.81 1004.37 1004.87 1005.34 1005.80 1006.29 1006.84 1007.45 1008.12 1008.82 1009.52 1010.16 1010.72 1011.16 1011.47 1011.66 1011.72 1011.67 1011.51 1011.25 1010.88 1010.40 1009.80 1009.08 1008.24 1007.32 1006.35 1005.37 1004.42 1003.56 1002.82 1002.22 1001.79 1001.53 1001.41 1001.44 1001.58 1001.81 1002.10 1002.45
1002.09 1002.63 1003.22 1003.81 1004.38 1004.93 1005.47 1006.01 1006.59 1007.20 1007.86 1008.55 1009.24 1009.91 1010.52 1011.05 1011.46 1011.76 1011.93 1011.99 1011.93 1011.75 1011.46 1011.05 1010.51 1009.84 1009.05 1008.14 1007.15 1006.11 1005.06 1004.05 1003.13 1002.33 1001.67 1001.18 1000.86 1000.69 1000.68 1000.79 1001.00 1001.29 1001.65
1002.09 1002.60 1003.15 1003.73 1004.32 1004.91 1005.52 1006.14 1006.79 1007.46 1008.15 1008.85 1009.53 1010.16 1010.73 1011.22 1011.61 1011.89 1012.06 1012.13 1012.08 1011.92 1011.63 1011.21 1010.66 1009.96 1009.13 1008.19 1007.16 1006.08 1004.99 1003.94 1002.97 1002.13 1001.42 1000.88 1000.49 1000.27 1000.20 1000.26 1000.43 1000.69 1001.02
1002.03 1002.53 1003.07 1003.64 1004.25 1004.89 1005.55 1006.23 1006.93 1007.64 1008.35 1009.04 1009.68 1010.28 1010.81 1011.26 1011.62 1011.90 1012.09 1012.18 1012.17 1012.05 1011.80 1011.41 1010.88 1010.20 1009.38 1008.44 1007.41 1006.32 1005.23 1004.17 1003.18 1002.31 1001.56 1000.97 1000.53 1000.25 1000.11 1000.10 1000.20 1000.40 1000.67
1001.99 1002.48 1003.03 1003.62 1004.25 1004.92 1005.62 1006.35 1007.08 1007.81 1008.51 1009.17 1009.78 1010.33 1010.82 1011.23 1011.58 1011.86 1012.07 1012.20 1012.24 1012.18 1012.00 1011.68 1011.20 1010.58 1009.81 1008.91 1007.92 1006.87 1005.80 1004.76 1003.78 1002.90 1002.14 1001.52 1001.03 1000.69 1000.48 1000.39 1000.41 1000.52 1000.71
1002.00 1002.52 1003.09 1003.70 1004.35 1005.05 1005.79 1006.54 1007.28 1008.01 1008.70 1009.33 1009.90 1010.40 1010.84 1011.23 1011.56 1011.85 1012.09 1012.26 1012.37 1012.38 1012.27 1012.03 1011.63 1011.08 1010.39 1009.57 1008.65 1007.67 1006.67 1005.68 1004.75 1003.89 1003.14 1002.50 1001.99 1001.59 1001.32 1001.16 1001.10 1001.12 1001.22
1002.10 1002.67 1003.26 1003.90 1004.58 1005.31 1006.06 1006.82 1007.56 1008.28 1008.94 1009.53 1010.07 1010.53 1010.94 1011.31 1011.64 1011.93 1012.20 1012.42 1012.57 1012.65 1012.61 1012.44 1012.13 1011.67 1011.07 1010.35 1009.53 1008.65 1007.74 1006.84 1005.98 1005.19 1004.47 1003.86 1003.34 1002.92 1002.60 1002.38 1002.25 1002.19 1002.20
1002.31 1002.92 1003.55 1004.22 1004.92 1005.65 1006.41 1007.17 1007.90 1008.59 1009.23 1009.80 1010.31 1010.75 1011.15 1011.50 1011.83 1012.14 1012.42 1012.67 1012.86 1012.97 1012.99 1012.88 1012.64 1012.26 1011.75 1011.14 1010.43 1009.67 1008.89 1008.11 1007.36 1006.66 1006.02 1005.45 1004.96 1004.54 1004.21 1003.95 1003.76 1003.65 1003.59
1002.59 1003.24 1003.91 1004.59 1005.30 1006.03 1006.78 1007.52 1008.24 1008.91 1009.54 1010.09 1010.59 1011.03 1011.43 1011.79 1012.13 1012.44 1012.73 1012.99 1013.19 1013.32 1013.36 1013.28 1013.09 1012.78 1012.36 1011.85 1011.26 1010.64 1009.99 1009.35 1008.73 1008.14 1007.61 1007.12 1006.68 1006.30 1005.98 1005.71 1005.50 1005.34 1005.24
1002.93 1003.60 1004.28 1004.97 1005.67 1006.38 1007.10 1007.82 1008.52 1009.18 1009.79 1010.35 1010.85 1011.31 1011.73 1012.11 1012.46 1012.78 1013.07 1013.32 1013.51 1013.63 1013.67 1013.60 1013.43 1013.17 1012.82 1012.40 1011.93 1011.43 1010.93 1010.44 1009.96 1009.51 1009.10 1008.71 1008.35 1008.03 1007.74 1007.49 1007.28 1007.11 1006.98
1003.27 1003.95 1004.63 1005.29 1005.96 1006.64 1007.33 1008.01 1008.68 1009.32 1009.93 1010.51 1011.03 1011.52 1011.97 1012.38 1012.75 1013.08 1013.37 1013.60 1013.77 1013.86 1013.87 1013.79 1013.63 1013.39 1013.10 1012.76 1012.39 1012.02 1011.66 1011.31 1010.98 1010.67 1010.38 1010.10 1009.83 1009.58 1009.34 1009.12 1008.93 1008.77 1008.64
1003.60 1004.27 1004.91 1005.54 1006.17 1006.79 1007.43 1008.06 1008.70 1009.32 1009.93 1010.52 1011.08 1011.60 1012.09 1012.54 1012.93 1013.28 1013.56 1013.77 1013.91 1013.97 1013.95 1013.85 1013.68 1013.47 1013.22 1012.95 1012.68 1012.42 1012.18 1011.96 1011.77 1011.58 1011.41 1011.23 1011.05 1010.86 1010.68 1010.50 1010.34 1010.19 1010.08
Thickness
5815 5816 5816 5815 5812 5809 5805 5802 5799 5798 5796 5793 5789 5787 5785 5786 5786 5786 5785 5784 5782 5781 5779 5776 5773 5771 5769 5767 5766 5764 5761 5760 5759 5756 5753 5755 5757 5757 5757 5757 5756 5754 5752
5811 5813 5814 5813 5811 5808 5805 5802 5800 5798 5796 5794 5791 5789 5787 5785 5785 5784 5784 5783 5782 5780 5779 5775 5773 5771 5769 5766 5765 5763 5759 5758 5758 5753 5747 5744 5746 5752 5756 5756 5754 5753 5751
5811 5812 5812 5811 5809 5807 5805 5804 5800 5798 5797 5794 5791 5788 5785 5783 5781 5780 5780 5781 5780 5779 5777 5775 5773 5771 5769 5766 5764 5763 5759 5755 5755 5754 5748 5740 5736 5741 5748 5751 5751 5750 5749
5815 5813 5812 5810 5809 5808 5807 5804 5801 5798 5796 5794 5789 5785 5780 5776 5778 5778 5778 5779 5778 5777 5776 5774 5772 5770 5768 5766 5764 5763 5759 5755 5751 5751 5751 5748 5745 5738 5737 5742 5745 5746 5745
5816 5814 5813 5812 5811 5810 5807 5803 5800 5797 5795 5792 5789 5784 5780 5779 5778 5777 5776 5776 5776 5775 5774 5772 5771 5769 5767 5765 5763 5760 5758 5755 5751 5748 5747 5745 5744 5741 5735 5732 5736 5739 5742
5816 5814 5813 5812 5809 5809 5806 5802 5797 5794 5793 5790 5787 5783 5779 5777 5775 5773 5772 5771 5772 5772 5771 5770 5768 5766 5765 5762 5760 5758 5756 5754 5751 5749 5746 5743 5740 5737 5735 5731 5730 5732 5736
5814 5811 5809 5807 5804 5802 5801 5799 5795 5791 5790 5787 5784 5782 5780 5777 5773 5771 5769 5768 5767 5767 5767 5768 5766 5764 5762 5760 5757 5756 5754 5752 5750 5748 5745 5744 5741 5740 5736 5732 5728 5728 5731
5812 5810 5808 5806 5803 5800 5798 5795 5792 5789 5787 5784 5782 5781 5778 5775 5772 5770 5768 5766 5766 5766 5766 5765 5763 5762 5760 5758 5756 5754 5752 5751 5749 5747 5744 5742 5741 5739 5736 5733 5728 5724 5724
5811 5810 5807 5805 5802 5798 5795 5794 5791 5787 5784 5782 5779 5776 5774 5773 5770 5768 5767 5765 5765 5765 5763 5762 5760 5759 5757 5756 5754 5751 5749 5748 5746 5744 5742 5740 5739 5737 5735 5733 5730 5723 5717
5807 5807 5804 5802 5800 5798 5795 5794 5789 5785 5782 5779 5776 5774 5772 5770 5769 5766 5764 5763 5762 5761 5760 5758 5756 5755 5753 5752 5750 5748 5746 5744 5742 5741 5739 5737 5736 5734 5733 5731 5728 5725 5720
5802 5802 5800 5799 5797 5795 5792 5790 5786 5782 5778 5776 5773 5771 5769 5767 5765 5763 5761 5760 5759 5757 5755 5754 5752 5751 5749 5747 5745 5744 5742 5740 5738 5737 5735 5733 5732 5730 5729 5727 5725 5722 5719
5801 5800 5798 5795 5791 5789 5787 5785 5782 5778 5775 5773 5770 5768 5766 5764 5761 5759 5758 5756 5754 5753 5751 5750 5748 5747 5745 5744 5741 5739 5738 5736 5734 5732 5730 5729 5728 5726 5724 5723 5721 5719 5718
5797 5794 5791 5788 5786 5784 5783 5781 5779 5776 5773 5770 5766 5763 5761 5759 5757 5756 5754 5753 5751 5749 5747 5746 5743 5742 5741 5740 5738 5736 5734 5733 5731 5729 5726 5725 5722 5720 5720 5718 5717 5715 5715
5791 5788 5786 5784 5782 5780 5779 5777 5774 5773 5770 5767 5763 5759 5757 5756 5754 5752 5751 5749 5747 5744 5743 5741 5739 5738 5737 5736 5734 5731 5730 5728 5726 5724 5723 5721 5719 5717 5716 5715 5713 5711 5709
5786 5784 5781 5778 5776 5775 5774 5772 5770 5768 5766 5762 5758 5756 5754 5753 5751 5748 5747 5745 5742 5741 5739 5737 5735 5734 5732 5731 5728 5726 5725 5722 5720 5719 5718 5718 5717 5716 5714 5712 5709 5707 5704
5783 5782 5780 5777 5773 5771 5769 5766 5764 5762 5760 5757 5754 5753 5751 5748 5746 5744 5742 5740 5737 5736 5734 5732 5730 5728 5728 5726 5724 5722 5719 5717 5715 5713 5713 5713 5712 5711 5710 5708 5707 5705 5701
5779 5777 5776 5774 5771 5768 5766 5762 5761 5758 5754 5751 5750 5748 5746 5743 5741 5740 5737 5734 5732 5730 5728 5727 5725 5723 5722 5721 5719 5717 5714 5712 5711 5709 5708 5708 5709 5707 5705 5703 5702 5700 5699
5774 5772 5771 5769 5768 5765 5761 5758 5756 5752 5749 5745 5744 5742 5740 5737 5735 5733 5731 5729 5727 5724 5722 5721 5719 5717 5717 5715 5713 5711 5709 5707 5705 5705 5703 5701 5701 5701 5699 5697 5695 5693 5693
5771 5769 5768 5766 5763 5758 5755 5751 5748 5746 5742 5739 5737 5736 5734 5731 5729 5727 5725 5724 5721 5718 5717 5715 5713 5711 5710 5709 5706 5704 5701 5699 5698 5698 5698 5696 5695 5695 5693 5690 5687 5686 5687
5766 5763 5761 5758 5755 5752 5750 5746 5742 5738 5735 5734 5733 5731 5729 5727 5724 5721 5719 5717 5715 5712 5710 5709 5707 5705 5703 5702 5699 5696 5693 5691 5690 5690 5691 5691 5690 5688 5686 5683 5681 5679 5680
5757 5755 5752 5748 5746 5745 5743 5737 5734 5732 5731 5730 5728 5725 5723 5720 5718 5715 5713 5710 5708 5705 5702 5700 5699 5698 5696 5694 5692 5689 5686 5684 5683 5683 5683 5684 5684 5681 5680 5678 5676 5675 5675
5747 5747 5743 5739 5738 5737 5734 5729 5726 5726 5725 5723 5720 5717 5715 5713 5711 5707 5705 5702 5699 5696 5693 5691 5689 5689 5688 5686 5685 5683 5680 5679 5677 5676 5677 5677 5677 5675 5673 5672 5672 5670 5668
5737 5737 5734 5730 5728 5727 5725 5720 5719 5719 5717 5714 5710 5708 5706 5704 5701 5698 5695 5693 5690 5686 5684 5682 5681 5680 5679 5678 5678 5677 5675 5673 5670 5671 5671 5670 5669 5668 5666 5666 5666 5663 5660
5727 5726 5723 5719 5717 5717 5716 5714 5713 5711 5708 5704 5701 5698 5696 5693 5691 5689 5687 5684 5680 5677 5676 5674 5672 5671 5670 5670 5669 5668 5667 5665 5663 5662 5663 5662 5662 5661 5660 5659 5658 5656 5654
5719 5717 5713 5709 5708 5708 5707 5706 5705 5702 5697 5694 5691 5689 5686 5684 5681 5680 5678 5676 5674 5672 5668 5666 5665 5663 5662 5663 5662 5659 5658 5657 5655 5654 5652 5652 5651 5651 5651 5651 5650 5649 5647
5711 5708 5705 5702 5701 5700 5698 5698 5696 5693 5689 5685 5682 5680 5677 5675 5673 5670 5669 5669 5667 5665 5663 5661 5659 5658 5657 5656 5654 5652 5651 5649 5647 5644 5643 5643 5643 5642 5643 5643 5643 5641 5640